Location: Rounton
(54.4000°N, 1.3500°W)
Time: 22:43:39
(UTC+00:00)

Vanguard 3 - Pass Details

Date: 05 December 2021
Orbit: 508 x 3260 km, 33.3° (Epoch: 17 January)

Event Time Altitude Azimuth Distance (km) Brightness Sun altitude
Rises 02:59:35 0° 216° (SW) 6,940 - -43.2°
Reaches altitude 10° 03:05:07 10° 206° (SSW) 6,105 - -42.4°
Exits shadow 03:12:28 22° 187° (S) 5,201 10.9 -41.4°
Maximum altitude 03:20:00 28° 157° (SSE) 4,718 10.9 -40.4°
Drops below altitude 10° 03:33:18 10° 108° (ESE) 5,467 11.9 -38.6°
Sets 03:37:50 0° 98° (E) 6,134 12.4 -37.9°
